K4KJQ-13 Weather Reports


time (UTC)temp
F
wind
direction
speed
knots
gust
knots
rain 1hr
in
rain 24hr
in
rain mn
in
humidity
%
barometer
mb
20260509032606 64 307 0.9 3.5 0.00 0.00 0.00 100
20260509032106 65 295 2.6 2.6 0.00 0.00 0.00 100
20260509031606 64 295 1.7 3.5 0.00 0.00 0.00 100
20260509031106 63 277 0.0 3.5 0.00 0.00 0.00 100
20260509030606 64 298 0.9 3.5 0.00 0.00 0.00 100
20260509030106 65 289 1.7 4.3 0.00 0.00 0.00 100
20260509025606 64 306 4.3 4.3 0.00 0.00 0.00 100
20260509025106 64 299 0.9 5.2 0.00 0.00 0.00 100
20260509024606 64 286 0.9 4.3 0.00 0.00 0.00 100
20260509024106 65 288 1.7 5.2 0.00 0.00 0.00 100
20260509023606 65 285 3.5 6.1 0.00 0.00 0.00 100
20260509023106 64 284 3.5 5.2 0.00 0.00 0.00 100
20260509022606 65 292 1.7 3.5 0.00 0.00 0.00 100
20260509022106 65 289 1.7 1.7 0.00 0.00 0.00 100
20260509021606 65 261 0.0 4.3 0.00 0.00 0.00 100
20260509021106 63 310 1.7 2.6 0.00 0.00 0.00 100
20260509020606 65 331 1.7 3.5 0.00 0.00 0.00 100
20260509020106 65 292 0.0 6.1 0.00 0.00 0.00 100
20260509015606 65 286 2.6 4.3 0.00 0.00 0.00 100
20260509015106 65 291 1.7 4.3 0.00 0.00 0.00 100
20260509014606 64 302 1.7 6.1 0.00 0.00 0.00 100
20260509014106 65 282 2.6 4.3 0.00 0.00 0.00 100
20260509013606 65 286 0.0 4.3 0.00 0.00 0.00 100
20260509013106 64 292 3.5 6.1 0.00 0.00 0.00 100
20260509012606 65 296 5.2 6.1 0.00 0.00 0.00 100
20260509012106 65 302 4.3 6.1 0.00 0.00 0.00 100
20260509011606 65 267 1.7 6.1 0.00 0.00 0.00 100
20260509011106 65 296 1.7 6.1 0.00 0.00 0.00 100
20260509010606 65 307 0.9 5.2 0.00 0.00 0.00 100
20260509010106 66 286 2.6 7.8 0.00 0.00 0.00 100
20260509005606 67 289 0.9 6.1 0.00 0.00 0.00 100
20260509005106 67 285 2.6 7.8 0.00 0.00 0.00 100
20260509004606 66 299 2.6 7.8 0.00 0.00 0.00 100
20260509004106 66 300 3.5 7.0 0.00 0.00 0.00 100
20260509003606 66 295 2.6 7.0 0.00 0.00 0.00 100
20260509003106 67 286 7.0 7.8 0.00 0.00 0.00 100
20260509002606 67 291 4.3 7.0 0.00 0.00 0.00 100
20260509002107 67 268 0.9 8.7 0.00 0.00 0.00 100
20260509001606 68 284 3.5 7.0 0.00 0.00 0.00 100
20260509001106 67 300 6.1 9.6 0.00 0.00 0.00 100
20260509000606 69 316 6.1 8.7 0.00 0.00 0.00 100
20260509000106 67 323 2.6 10.4 0.00 0.00 0.00 100
20260508235606 68 299 7.0 12.2 0.00 0.00 0.00 100
20260508235106 68 293 7.8 13.9 0.00 0.00 0.00 100
20260508234606 69 295 4.3 10.4 0.00 0.00 0.00 100
20260508234106 69 317 4.3 8.7 0.00 0.00 0.00 100
20260508233606 70 299 5.2 10.4 0.00 0.00 0.00 100
20260508233106 69 315 5.2 10.4 0.00 0.00 0.00 100
20260508232606 69 315 3.5 11.3 0.00 0.00 0.00 100
20260508232107 70 316 4.3 12.2 0.00 0.00 0.00 100
20260508231606 70 300 5.2 13.0 0.00 0.00 0.00 100
20260508231106 69 302 4.3 14.8 0.00 0.00 0.00 100
20260508230607 70 298 3.5 10.4 0.00 0.00 0.00 100
20260508230107 70 306 3.5 13.0 0.00 0.00 0.00 100
20260508225606 71 274 11.3 15.6 0.00 0.00 0.00 100
20260508225106 72 317 2.6 13.9 0.00 0.00 0.00 100
20260508224607 71 288 5.2 11.3 0.00 0.00 0.00 100
20260508224107 72 302 4.3 16.5 0.00 0.00 0.00 100
20260508223607 72 291 14.8 15.6 0.00 0.00 0.00 100
20260508223107 72 295 7.8 14.8 0.00 0.00 0.00 100
20260508222607 73 286 7.8 12.2 0.00 0.00 0.00 100
20260508222107 72 292 9.6 14.8 0.00 0.00 0.00 100
20260508221607 73 293 3.5 11.3 0.00 0.00 0.00 100
20260508221107 73 317 7.8 9.6 0.00 0.00 0.00 100
20260508220607 72 5 1.7 8.7 0.00 0.00 0.00 100
20260508220107 73 292 4.3 16.5 0.00 0.00 0.00 100
20260508215607 73 306 7.0 13.0 0.00 0.00 0.00 100
20260508215107 72 278 11.3 13.0 0.00 0.00 0.00 100
20260508214607 71 289 11.3 16.5 0.00 0.00 0.00 100
20260508214107 73 267 4.3 15.6 0.00 0.00 0.00 100
20260508213607 73 272 8.7 18.2 0.00 0.00 0.00 100
20260508213107 71 298 7.8 13.9 0.00 0.00 0.00 100
20260508212607 72 274 7.8 17.4 0.00 0.00 0.00 100
20260508212107 72 289 11.3 16.5 0.00 0.00 0.00 100
20260508211607 73 298 7.8 9.6 0.00 0.00 0.00 100
20260508211107 73 295 5.2 12.2 0.00 0.00 0.00 100
20260508210607 72 305 6.1 13.9 0.00 0.00 0.00 100
20260508210107 73 270 9.6 13.0 0.00 0.00 0.00 100
20260508205607 73 282 6.1 10.4 0.00 0.00 0.00 100
20260508205107 73 313 5.2 11.3 0.00 0.00 0.00 100
20260508204607 74 282 6.1 11.3 0.00 0.00 0.00 100
20260508204107 73 315 5.2 14.8 0.00 0.00 0.00 100
20260508203607 74 302 4.3 12.2 0.00 0.00 0.00 100
20260508203107 73 300 7.8 14.8 0.00 0.00 0.00 100
20260508202607 73 282 8.7 11.3 0.00 0.00 0.00 100
20260508202107 73 298 4.3 12.2 0.00 0.00 0.00 100
20260508201607 73 284 7.0 13.0 0.00 0.00 0.00 100
20260508201107 72 295 3.5 14.8 0.00 0.00 0.00 100
20260508200607 73 293 5.2 11.3 0.00 0.00 0.00 100
20260508200107 72 296 3.5 13.9 0.00 0.00 0.00 100
20260508195607 73 312 8.7 12.2 0.00 0.00 0.00 100
20260508195107 71 300 4.3 17.4 0.00 0.00 0.00 100
20260508194607 73 298 11.3 19.1 0.00 0.00 0.00 100
20260508194107 72 275 12.2 13.9 0.00 0.00 0.00 100
20260508193607 73 296 6.1 14.8 0.00 0.00 0.00 100
20260508193107 73 295 2.6 11.3 0.00 0.00 0.00 100
20260508192607 72 309 1.7 13.9 0.00 0.00 0.00 100
20260508192107 70 279 10.4 15.6 0.00 0.00 0.00 100
20260508191607 71 315 9.6 12.2 0.00 0.00 0.00 100
20260508191107 72 302 3.5 13.9 0.00 0.00 0.00 100
20260508190607 72 281 3.5 10.4 0.00 0.00 0.00 100
20260508190107 73 291 5.2 10.4 0.00 0.00 0.00 100
20260508185607 72 303 2.6 13.9 0.00 0.00 0.00 100
20260508185107 72 278 8.7 15.6 0.00 0.00 0.00 100
20260508184607 71 271 6.1 12.2 0.00 0.00 0.00 100
20260508184107 71 306 3.5 12.2 0.00 0.00 0.00 100
20260508183607 71 284 10.4 13.9 0.00 0.00 0.00 100
20260508183107 70 251 7.8 15.6 0.00 0.00 0.00 100
20260508182607 70 285 12.2 17.4 0.00 0.00 0.00 100
20260508182107 69 275 14.8 20.0 0.00 0.00 0.00 100
20260508181607 69 295 5.2 16.5 0.00 0.00 0.00 100
20260508181107 70 278 14.8 15.6 0.00 0.00 0.00 100
20260508180607 70 293 6.1 16.5 0.00 0.00 0.00 100
20260508180107 70 288 6.1 12.2 0.00 0.00 0.00 100
20260508175607 70 282 5.2 13.0 0.00 0.00 0.00 100
20260508175107 69 250 3.5 12.2 0.00 0.00 0.00 100
20260508174607 70 257 9.6 13.9 0.00 0.00 0.00 100
20260508174107 69 292 7.8 9.6 0.00 0.00 0.00 100
20260508173607 69 343 2.6 13.0 0.00 0.00 0.00 100
20260508173107 69 278 10.4 14.8 0.00 0.00 0.00 100
20260508172607 69 316 3.5 11.3 0.00 0.00 0.00 100
20260508172107 70 271 4.3 9.6 0.00 0.00 0.00 100
20260508171607 70 300 2.6 13.0 0.00 0.00 0.00 100
20260508171107 68 262 7.0 12.2 0.00 0.00 0.00 100
20260508170607 69 274 4.3 10.4 0.00 0.00 0.00 100
20260508170107 68 309 1.7 12.2 0.00 0.00 0.00 100
20260508165607 68 299 5.2 12.2 0.00 0.00 0.00 100
20260508165107 69 270 6.1 9.6 0.00 0.00 0.00 100
20260508164607 69 296 3.5 11.3 0.00 0.00 0.00 100
20260508164107 68 288 5.2 13.0 0.00 0.00 0.00 100
20260508163607 69 296 7.0 11.3 0.00 0.00 0.00 100
20260508163107 68 306 3.5 12.2 0.00 0.00 0.00 100
20260508162607 68 286 8.7 11.3 0.00 0.00 0.00 100
20260508162107 68 272 4.3 12.2 0.00 0.00 0.00 100
20260508161607 69 306 5.2 7.8 0.00 0.00 0.00 100
20260508161107 69 312 5.2 8.7 0.00 0.00 0.00 100
20260508160607 67 305 3.5 9.6 0.00 0.00 0.00 100
20260508160108 67 337 3.5 13.0 0.00 0.00 0.00 100
20260508155607 66 309 2.6 10.4 0.00 0.00 0.00 100
20260508155107 66 302 3.5 11.3 0.00 0.00 0.00 100
20260508154607 67 278 5.2 8.7 0.00 0.00 0.00 100
20260508154107 67 275 1.7 10.4 0.00 0.00 0.00 100
20260508153607 67 320 2.6 7.0 0.00 0.00 0.00 100
20260508153107 66 300 2.6 10.4 0.00 0.00 0.00 100
20260508152607 66 319 4.3 12.2 0.00 0.00 0.00 100
20260508152107 66 307 7.0 9.6 0.00 0.00 0.00 100
20260508151607 65 285 7.8 7.8 0.00 0.00 0.00 100
20260508151107 65 309 4.3 8.7 0.00 0.00 0.00 100
20260508150607 65 292 5.2 12.2 0.00 0.00 0.00 100
20260508150107 65 284 11.3 12.2 0.00 0.00 0.00 100
20260508145607 65 293 6.1 8.7 0.00 0.00 0.00 100
20260508145107 64 300 3.5 9.6 0.00 0.00 0.00 100
20260508144607 65 291 3.5 9.6 0.00 0.00 0.00 100
20260508144107 65 303 3.5 7.0 0.00 0.00 0.00 100
20260508143607 65 310 6.1 8.7 0.00 0.00 0.00 100
20260508143107 63 303 7.8 7.8 0.00 0.00 0.00 100
20260508142607 63 307 3.5 10.4 0.00 0.00 0.00 100
20260508142107 63 312 5.2 7.8 0.00 0.00 0.00 100
20260508141607 64 310 4.3 7.8 0.00 0.00 0.00 100
20260508141107 62 284 5.2 9.6 0.00 0.00 0.00 100
20260508140607 62 293 6.1 10.4 0.00 0.00 0.00 100
20260508140107 63 292 4.3 11.3 0.00 0.00 0.00 100
20260508135607 61 305 7.0 9.6 0.00 0.00 0.00 100
20260508135107 62 254 2.6 7.8 0.00 0.00 0.00 100
20260508134607 62 292 3.5 8.7 0.00 0.00 0.00 100
20260508134107 61 302 4.3 10.4 0.00 0.00 0.00 100
20260508133607 61 302 5.2 10.4 0.00 0.00 0.00 100
20260508133107 61 305 6.1 10.4 0.00 0.00 0.00 100
20260508132607 60 316 5.2 7.0 0.00 0.00 0.00 100
20260508132107 59 28 2.6 8.7 0.00 0.00 0.00 100
20260508131607 60 310 2.6 10.4 0.00 0.00 0.00 100
20260508131107 59 336 5.2 8.7 0.00 0.00 0.00 100
20260508130607 59 262 3.5 7.8 0.00 0.00 0.00 100
20260508130107 60 306 0.9 6.1 0.00 0.00 0.00 100
20260508125607 59 289 1.7 6.1 0.00 0.00 0.00 100
20260508125107 58 299 2.6 7.0 0.00 0.00 0.00 100
20260508124607 57 293 2.6 8.7 0.00 0.00 0.00 100
20260508124107 57 292 5.2 6.1 0.00 0.00 0.00 100
20260508123607 57 305 1.7 6.1 0.00 0.00 0.00 100
20260508123107 56 305 4.3 6.1 0.00 0.00 0.00 100
20260508122607 55 309 3.5 7.0 0.00 0.00 0.00 100
20260508122112 55 298 6.1 7.8 0.00 0.00 0.00 100
20260508122107 55 298 6.1 7.8 0.00 0.00 0.00 100
20260508121607 55 291 4.3 5.2 0.00 0.00 0.00 100
20260508121107 54 285 3.5 6.1 0.00 0.00 0.00 100
20260508120607 54 299 3.5 6.1 0.00 0.00 0.00 100
20260508120107 53 279 5.2 6.1 0.00 0.00 0.00 100
20260508115607 53 305 2.6 5.2 0.00 0.00 0.00 100
20260508115107 53 251 0.9 3.5 0.00 0.00 0.00 100
20260508114607 52 316 0.9 4.3 0.00 0.00 0.00 100
20260508114107 51 291 1.7 3.5 0.00 0.00 0.00 100
20260508113607 51 279 0.0 1.7 0.00 0.00 0.00 100
20260508113107 49 291 1.7 2.6 0.00 0.00 0.00 100
20260508112607 48 288 0.0 2.6 0.00 0.00 0.00 100
20260508112107 48 288 1.7 2.6 0.00 0.00 0.00 100
20260508111607 45 289 0.9 2.6 0.00 0.00 0.00 100
20260508111107 44 258 0.9 2.6 0.00 0.00 0.00 100
20260508110607 43 285 1.7 1.7 0.00 0.00 0.00 100
20260508110107 42 275 0.0 0.9 0.00 0.00 0.00 100
20260508105607 42 239 0.0 0.0 0.00 0.00 0.00 100
20260508105107 42 278 0.0 0.0 0.00 0.00 0.00 100
20260508104607 42 243 0.0 0.0 0.00 0.00 0.00 100
20260508104107 42 243 0.0 0.0 0.00 0.00 0.00 100
20260508103607 43 243 0.0 0.0 0.00 0.00 0.00 100
20260508103107 43 241 0.0 0.0 0.00 0.00 0.00 100
20260508102607 43 272 0.0 1.7 0.00 0.00 0.00 100
20260508102107 44 262 0.0 0.9 0.00 0.00 0.00 100
20260508101607 45 265 0.0 1.7 0.00 0.00 0.00 100
20260508101107 46 279 0.9 3.5 0.00 0.00 0.00 100
20260508100607 47 237 0.0 2.6 0.00 0.00 0.00 100
20260508100107 47 285 2.6 5.2 0.00 0.00 0.00 100
20260508095607 48 293 4.3 5.2 0.00 0.00 0.00 100
20260508095107 47 291 3.5 5.2 0.00 0.00 0.00 100
20260508094607 47 289 3.5 5.2 0.00 0.00 0.00 100
20260508094107 47 293 3.5 4.3 0.00 0.00 0.00 100
20260508093607 47 285 2.6 5.2 0.00 0.00 0.00 100
20260508093107 47 267 2.6 4.3 0.00 0.00 0.00 100
20260508092607 47 289 3.5 5.2 0.00 0.00 0.00 100
20260508092107 47 271 3.5 4.3 0.00 0.00 0.00 100
20260508091607 47 289 2.6 4.3 0.00 0.00 0.00 100
20260508091107 47 295 2.6 5.2 0.00 0.00 0.00 100
20260508090607 48 285 4.3 5.2 0.00 0.00 0.00 100
20260508090107 47 299 3.5 5.2 0.00 0.00 0.00 100
20260508085607 47 274 3.5 7.0 0.00 0.00 0.00 100
20260508085107 47 282 3.5 7.0 0.00 0.00 0.00 100
20260508084607 47 293 3.5 5.2 0.00 0.00 0.00 100
20260508084107 47 279 2.6 5.2 0.00 0.00 0.00 100
20260508083607 47 288 2.6 5.2 0.00 0.00 0.00 100
20260508083107 46 292 2.6 3.5 0.00 0.00 0.00 100
20260508082607 46 299 2.6 3.5 0.00 0.00 0.00 100
20260508082107 46 289 0.9 3.5 0.00 0.00 0.00 100
20260508081607 46 288 3.5 4.3 0.00 0.00 0.00 100
20260508081107 46 288 1.7 3.5 0.00 0.00 0.00 100
20260508080607 46 291 1.7 3.5 0.00 0.00 0.00 100
20260508080108 46 282 2.6 4.3 0.00 0.00 0.00 100
20260508075607 46 289 2.6 4.3 0.00 0.00 0.00 100
20260508075107 46 296 2.6 4.3 0.00 0.00 0.00 100
20260508074607 46 293 2.6 3.5 0.00 0.00 0.00 100
20260508074107 46 295 1.7 4.3 0.00 0.00 0.00 100
20260508073607 47 292 1.7 4.3 0.00 0.00 0.00 100
20260508073107 47 285 1.7 4.3 0.00 0.00 0.00 100
20260508072607 47 288 3.5 5.2 0.00 0.00 0.00 100
20260508072107 46 284 0.9 5.2 0.00 0.00 0.00 100
20260508071607 45 286 3.5 4.3 0.00 0.00 0.00 100
20260508071107 45 295 1.7 2.6 0.00 0.00 0.00 100
20260508070607 44 295 1.7 1.7 0.00 0.00 0.00 100
20260508070107 44 246 0.0 0.0 0.00 0.00 0.00 100
20260508065607 44 246 0.0 0.9 0.00 0.00 0.00 100
20260508065107 44 286 0.0 1.7 0.00 0.00 0.00 100
20260508064607 44 285 0.0 1.7 0.00 0.00 0.00 100
20260508064107 43 268 0.9 0.9 0.00 0.00 0.00 100
20260508063607 43 229 0.0 0.0 0.00 0.00 0.00 100
20260508063107 42 229 0.0 0.0 0.00 0.00 0.00 100
20260508062607 42 229 0.0 0.0 0.00 0.00 0.00 100
20260508062107 43 229 0.0 0.0 0.00 0.00 0.00 100
20260508061607 44 229 0.0 0.0 0.00 0.00 0.00 100
20260508061108 44 229 0.0 0.0 0.00 0.00 0.00 100
20260508060607 44 229 0.0 0.0 0.00 0.00 0.00 100
20260508060107 45 229 0.0 0.0 0.00 0.00 0.00 100
20260508055607 46 229 0.0 1.7 0.00 0.00 0.00 100
20260508055107 45 223 0.9 2.6 0.00 0.00 0.00 100
20260508054607 44 265 0.9 0.9 0.00 0.00 0.00 100
20260508054107 44 275 0.0 0.0 0.00 0.00 0.00 100
20260508053607 45 275 0.0 0.0 0.00 0.00 0.00 100
20260508053107 46 275 0.0 0.9 0.00 0.00 0.00 100
20260508052607 46 248 0.0 1.7 0.00 0.00 0.00 100
20260508052107 46 254 0.0 0.0 0.00 0.00 0.00 100
20260508051607 46 241 0.0 0.9 0.00 0.00 0.00 100
20260508051107 47 274 0.0 1.7 0.00 0.00 0.00 100
20260508050607 47 265 0.0 1.7 0.00 0.00 0.00 100
20260508050107 47 275 1.7 1.7 0.00 0.00 0.00 100
20260508045607 46 286 1.7 1.7 0.00 0.00 0.00 100
20260508045107 46 278 0.9 0.9 0.00 0.00 0.00 100
20260508044607 46 253 0.0 0.0 0.00 0.00 0.00 100
20260508044107 46 253 0.0 0.0 0.00 0.00 0.00 100
20260508043607 45 253 0.0 0.0 0.00 0.00 0.00 100
20260508043107 47 253 0.0 0.0 0.00 0.00 0.00 100
20260508042607 47 272 0.0 0.0 0.00 0.00 0.00 100
20260508042107 46 279 0.0 0.9 0.00 0.00 0.00 100
20260508041607 45 274 0.9 0.9 0.00 0.00 0.00 100
20260508041107 46 268 0.0 0.0 0.00 0.00 0.00 100
20260508040607 46 268 0.0 0.9 0.00 0.00 0.00 100
20260508040107 47 274 0.0 2.6 0.00 0.00 0.00 100
20260508035607 47 268 0.9 1.7 0.00 0.00 0.00 100
20260508035107 47 293 0.0 1.7 0.00 0.00 0.00 100
20260508034607 45 277 0.0 1.7 0.00 0.00 0.00 100
20260508034107 45 255 0.0 0.0 0.00 0.00 0.00 100
20260508033607 45 255 0.0 0.0 0.00 0.00 0.00 100
20260508033107 46 255 0.0 0.0 0.00 0.00 0.00 100